Location: Oshawa
(43.9000°N, 78.8670°W)
Time: 04:41:16
(UTC-04:00)

PAYLOAD A - Visible Passes

Search period start: 29 July 2014 00:00
Search period end: 08 August 2014 00:00
Orbit: 692 x 833 km, 98.2° (Epoch: 28 July)

Date Brightness Start Highest point End Pass type
(mag) Time Alt. Az. Time Alt. Az. Time Alt. Az.
31 Jul 6.5 21:11:48 10° SW 21:15:05 19° W 21:18:23 10° NW visible
02 Aug 7.0 21:38:24 10° W 21:39:21 11° W 21:40:18 10° WNW visible
05 Aug 6.6 21:23:02 10° SW 21:25:38 15° W 21:28:15 10° NW visible
